Waarnemingen

Advertentie
Mijn weer
Le Talut, Frankrijk (7207): temperatuur & dauwpunt: 15.10.2017 15:00:00 - 21.10.2017 15:00:00 (CEST)Le Talut, Frankrijk (7207): windsnelheid & windstoten: 15.10.2017 15:00:00 - 21.10.2017 15:00:00 (CEST)Le Talut, Frankrijk (7207): windrichting: 15.10.2017 15:00:00 - 21.10.2017 15:00:00 (CEST)Le Talut, Frankrijk (7207): luchtdruk: 15.10.2017 15:00:00 - 21.10.2017 15:00:00 (CEST)Le Talut, Frankrijk (7207): zicht: 15.10.2017 15:00:00 - 21.10.2017 15:00:00 (CEST)Le Talut, Frankrijk (7207): neerslag: 15.10.2017 15:00:00 - 21.10.2017 15:00:00 (CEST)
Datum & Tijd tt [°C] td [°C] ff [km/u] ff [kn] fx [km/u] fx [kn] dd ppp [hPa] vv [km] rr [mm]
21.10.2017 15:00:00 15,4 9,7 51 27 82 45 W 1016,4 - 0,0
21.10.2017 14:00:00 15,2 9,8 49 26 81 44 W 1016,0 10 0,0
21.10.2017 13:00:00 15,5 10,0 49 27 81 44 WZW 1015,6 - 0,0
21.10.2017 12:00:00 14,9 10,3 48 26 90 49 W 1015,5 - 1,2
21.10.2017 11:00:00 15,4 9,7 50 27 80 43 WZW 1014,8 4,0 0,0
21.10.2017 10:00:00 15,1 9,9 48 26 83 45 W 1014,5 - 0,0
21.10.2017 09:00:00 13,8 10,0 43 23 83 45 WZW 1013,8 - 1,2
21.10.2017 08:00:00 12,9 8,0 54 29 90 49 W 1013,6 4,0 0,8
21.10.2017 07:00:00 15,9 10,9 48 26 85 46 WZW 1012,5 - 0,0
21.10.2017 06:00:00 15,8 11,2 52 28 80 43 WZW 1012,1 - 0,0
21.10.2017 05:00:00 16,1 11,5 45 24 72 39 WZW 1011,8 - 0,0
21.10.2017 04:00:00 16,1 12,6 46 25 75 41 WZW 1011,6 - 0,0
21.10.2017 03:00:00 15,9 14,3 55 30 81 44 ZW 1010,7 - 0,0
21.10.2017 02:00:00 14,8 13,5 36 20 70 38 ZW 1010,6 - 0,4
21.10.2017 01:00:00 13,9 12,3 48 26 100 54 WZW 1010,8 - 1,0
21.10.2017 00:00:00 17,6 15,4 56 30 80 43 Z 1009,1 - 0,0
20.10.2017 23:00:00 17,4 15,2 49 27 67 36 Z 1009,3 - 0,0
20.10.2017 22:00:00 17,2 15,5 46 25 66 36 Z 1010,0 - 0,0
20.10.2017 21:00:00 17,0 15,5 45 24 60 32 Z 1010,8 - 0,0
20.10.2017 20:00:00 16,6 15,3 47 25 63 34 Z 1011,4 - 0,0
20.10.2017 19:00:00 16,9 14,9 36 20 51 28 Z 1011,7 - 0,0
20.10.2017 18:00:00 16,9 14,2 35 19 51 27 Z 1012,4 - 0,0
20.10.2017 17:00:00 16,8 13,3 35 19 49 26 Z 1013,1 18 0,0
20.10.2017 16:00:00 17,1 12,2 36 19 49 26 Z 1013,6 - 0,0
20.10.2017 15:00:00 16,9 11,6 34 18 46 25 Z 1014,3 - 0,0
20.10.2017 14:00:00 16,8 11,3 26 14 40 22 ZZW 1014,9 - 0,0
20.10.2017 13:00:00 16,5 10,8 26 14 36 19 ZZW 1014,9 - 0,0
20.10.2017 12:00:00 15,8 9,5 19 11 35 19 ZW 1015,0 - 0,0
20.10.2017 11:00:00 15,3 9,0 21 11 35 19 WZW 1015,0 15 0,0
20.10.2017 10:00:00 14,9 9,5 21 11 37 20 WZW 1014,5 - 0,0
20.10.2017 09:00:00 14,3 8,3 26 14 45 24 W 1013,9 - 0,0
20.10.2017 08:00:00 14,3 8,9 29 16 50 27 W 1013,0 12 0,0
20.10.2017 07:00:00 14,4 9,6 29 16 53 29 W 1012,7 - 0,0
20.10.2017 06:00:00 14,4 9,0 32 17 53 29 W 1012,0 - 0,0
20.10.2017 05:00:00 14,3 8,9 36 19 60 32 W 1011,5 - 0,0
20.10.2017 04:00:00 14,5 9,7 36 19 61 33 W 1011,4 - 0,0
20.10.2017 03:00:00 14,4 9,0 42 23 63 34 W 1010,8 - 0,0
20.10.2017 02:00:00 14,4 9,4 41 22 66 36 W 1010,0 - 0,0
20.10.2017 01:00:00 14,8 10,2 40 21 67 36 W 1009,3 - 0,0
20.10.2017 00:00:00 14,8 10,4 41 22 68 37 W 1008,5 - 0,0
19.10.2017 23:00:00 14,8 11,6 41 22 63 34 W 1007,5 - 0,0
19.10.2017 22:00:00 14,9 11,5 43 23 74 40 W 1006,3 - 0,0
19.10.2017 21:00:00 15,4 13,6 42 23 64 35 W 1005,4 - 0,0
19.10.2017 20:00:00 15,3 14,7 34 18 87 47 W 1004,4 8 2,9
19.10.2017 19:00:00 15,6 15,3 58 31 87 47 ZZW 1003,1 - 2,8
19.10.2017 18:00:00 16,0 14,2 56 31 80 43 Z 1003,3 - 0,8
19.10.2017 17:00:00 16,3 14,0 55 30 73 40 Z 1004,1 2,0 0,4
19.10.2017 16:00:00 16,9 14,4 49 26 65 35 Z 1004,8 - 0,0
19.10.2017 15:00:00 17,3 14,4 42 23 56 31 Z 1005,5 - 0,0
19.10.2017 14:00:00 17,0 14,1 36 19 51 28 ZZW 1006,4 18 0,0
19.10.2017 13:00:00 16,6 13,7 37 20 49 26 ZZW 1007,0 - 0,0
19.10.2017 12:00:00 16,4 14,1 30 16 46 25 ZZW 1007,3 - 0,0
19.10.2017 11:00:00 16,0 13,7 24 13 38 21 ZZW 1007,8 18 0,0
19.10.2017 10:00:00 15,7 11,9 18 10 25 14 ZZW 1007,2 - 0,0
19.10.2017 09:00:00 15,7 12,8 17 9 27 15 WZW 1006,9 - 0,0
19.10.2017 08:00:00 15,5 13,5 17 9 27 14 W 1006,5 6 0,0
19.10.2017 07:00:00 15,4 14,4 21 12 41 22 W 1006,6 - 0,0
19.10.2017 06:00:00 14,7 13,7 3 1 12 7 NNW 1006,5 - 0,2
19.10.2017 05:00:00 15,4 14,4 5 3 19 11 OZO 1007,1 - 0,4
19.10.2017 04:00:00 15,8 14,8 10 6 32 18 WNW 1007,5 - 0,4
19.10.2017 03:00:00 16,1 15,0 9 5 18 10 WNW 1007,7 - 0,0
19.10.2017 02:00:00 15,6 14,1 7 4 11 6 WNW 1008,1 - 0,2
19.10.2017 01:00:00 15,6 13,4 10 5 19 10 NO 1008,2 - 0,0
19.10.2017 00:00:00 15,5 13,2 16 9 21 11 ONO 1008,8 - 0,0
18.10.2017 23:00:00 14,6 12,8 9 5 15 8 NNO 1009,1 - 0,0
18.10.2017 22:00:00 13,7 12,1 10 5 14 8 NNO 1009,3 - 0,0
18.10.2017 21:00:00 14,0 12,6 11 6 14 7 NNO 1009,3 - 0,0
18.10.2017 20:00:00 14,2 12,6 10 6 12 7 NO 1009,4 - 0,0
18.10.2017 19:00:00 16,8 13,7 2 1 8 4 NNW 1009,6 - 0,0
18.10.2017 18:00:00 18,4 14,1 0 0 9 5 N 1009,4 - 0,0
18.10.2017 17:00:00 17,3 13,6 2 1 14 8 O 1009,4 18 0,0
18.10.2017 16:00:00 17,4 12,7 5 3 14 8 ONO 1009,8 - 0,0
18.10.2017 15:00:00 17,4 11,9 3 2 11 6 O 1010,0 - 0,0
18.10.2017 14:00:00 17,2 12,9 9 5 16 8 ONO 1010,3 18 0,0
18.10.2017 13:00:00 17,5 13,0 9 5 16 9 O 1010,8 - 0,0
18.10.2017 12:00:00 17,3 11,6 3 2 12 6 O 1011,1 - 0,0
18.10.2017 11:00:00 15,6 13,1 7 4 14 8 NO 1011,0 15 0,0
18.10.2017 10:00:00 13,9 12,5 11 6 15 8 O 1011,2 - 0,0
18.10.2017 09:00:00 13,4 12,0 13 7 14 8 NO 1010,8 - 0,0
18.10.2017 08:00:00 12,9 12,0 8 5 14 8 ONO 1011,1 15 0,0
18.10.2017 07:00:00 12,4 11,3 8 5 12 6 NNO 1011,2 - 0,0
18.10.2017 06:00:00 13,9 12,5 4 2 21 12 NNO 1011,5 - 0,2
18.10.2017 05:00:00 14,4 11,9 16 9 31 17 W 1011,8 - 2,2
18.10.2017 04:00:00 15,5 13,5 21 11 35 19 W 1012,2 - 0,2
18.10.2017 03:00:00 15,5 13,5 10 6 35 19 WNW 1012,4 - 0,0
18.10.2017 02:00:00 15,7 15,1 27 14 42 23 W 1012,4 - 0,0
18.10.2017 01:00:00 16,7 16,4 14 8 26 14 W 1012,4 - 0,0
18.10.2017 00:00:00 16,8 16,5 15 8 23 12 W 1012,8 - 0,0
17.10.2017 23:00:00 17,0 16,7 10 5 18 10 WZW 1013,0 - 0,0
17.10.2017 22:00:00 16,8 16,3 16 8 31 17 ZZO 1013,1 - 0,2
17.10.2017 21:00:00 17,0 16,2 16 9 30 16 O 1012,7 - 0,0
17.10.2017 20:00:00 16,6 15,6 14 8 29 16 ONO 1012,9 6 0,2
17.10.2017 19:00:00 17,0 15,7 21 12 34 18 O 1013,1 - 0,2
17.10.2017 18:00:00 16,9 15,6 20 11 33 18 O 1013,6 - 0,0
17.10.2017 17:00:00 16,6 15,5 16 9 33 18 O 1014,3 6 0,0
17.10.2017 16:00:00 16,3 15,2 16 8 40 21 O 1014,8 - 0,0
17.10.2017 15:00:00 16,0 14,9 26 14 44 24 O 1015,3 - 0,0
17.10.2017 14:00:00 16,0 14,4 23 12 51 28 O 1016,0 - 0,0
17.10.2017 13:00:00 15,8 13,5 32 18 58 31 O 1017,0 - 0,0
17.10.2017 12:00:00 15,9 12,6 29 16 53 29 O 1017,9 - 0,0
17.10.2017 11:00:00 14,8 11,9 33 18 55 30 O 1018,0 - 0,0
17.10.2017 10:00:00 14,8 12,8 32 18 46 25 ONO 1018,6 - 0,0
17.10.2017 09:00:00 14,5 12,0 25 13 43 23 O 1019,3 - 0,0
17.10.2017 08:00:00 14,3 12,3 21 11 33 18 ONO 1019,9 - 0,0
17.10.2017 07:00:00 14,4 12,6 13 7 22 12 ONO 1020,9 - 0,0
17.10.2017 06:00:00 14,5 12,7 12 7 24 13 NO 1020,8 - 0,0
17.10.2017 05:00:00 14,2 12,2 12 7 18 10 NO 1021,5 - 0,0
17.10.2017 04:00:00 14,0 11,9 13 7 15 8 NO 1022,0 - 0,0
17.10.2017 03:00:00 13,6 11,6 8 4 10 5 NNO 1022,4 - 0,0
17.10.2017 02:00:00 14,4 11,9 5 3 6 3 NNO 1022,9 - 0,0
17.10.2017 01:00:00 15,2 12,0 3 2 13 7 N 1023,2 - 0,0
17.10.2017 00:00:00 16,0 12,4 6 3 17 9 W 1023,5 - 0,0
16.10.2017 23:00:00 16,0 12,5 9 5 24 13 WZW 1023,6 - 0,0
16.10.2017 22:00:00 16,5 12,1 18 10 29 16 WZW 1023,5 - 0,0
16.10.2017 21:00:00 16,3 12,6 18 10 31 17 WZW 1023,2 - 0,0
16.10.2017 20:00:00 16,3 12,8 16 9 30 16 WZW 1022,7 - 0,0
16.10.2017 19:00:00 16,4 13,3 17 9 31 17 WZW 1022,3 - 0,0
16.10.2017 18:00:00 16,5 13,2 17 9 28 15 WZW 1021,9 - 0,0
16.10.2017 17:00:00 16,6 13,1 19 10 30 16 WZW 1021,6 - 0,0
16.10.2017 16:00:00 16,8 12,7 24 13 35 19 W 1021,3 - 0,0
16.10.2017 15:00:00 17,0 13,5 20 11 36 20 W 1021,2 - 0,0
16.10.2017 14:00:00 17,3 14,0 18 10 32 17 WZW 1020,8 5 0,0
16.10.2017 13:00:00 17,3 14,8 16 9 32 17 ZW 1020,3 - 0,0
16.10.2017 12:00:00 17,9 15,2 20 11 35 19 WZW 1019,2 - 0,0
16.10.2017 11:00:00 18,3 16,1 19 10 42 23 ZW 1018,3 3,0 0,0
16.10.2017 10:00:00 19,1 16,5 25 14 46 25 ZZW 1017,5 - 0,0
16.10.2017 09:00:00 18,7 16,5 32 17 56 31 Z 1016,4 - 0,0
16.10.2017 08:00:00 18,9 16,9 40 21 72 39 Z 1015,8 10 0,0
16.10.2017 07:00:00 18,4 16,7 49 26 73 40 ZZO 1014,0 - 0,0
16.10.2017 06:00:00 18,6 16,6 46 25 67 36 ZO 1013,9 - 0,0
16.10.2017 05:00:00 18,6 16,6 43 23 66 35 ZO 1014,3 - 0,0
16.10.2017 04:00:00 18,7 16,7 42 23 60 32 ZO 1015,2 - 0,0
16.10.2017 03:00:00 18,3 16,8 32 17 54 29 ZO 1016,2 - 0,0
16.10.2017 02:00:00 18,4 16,9 21 11 55 30 ZO 1017,0 - 0,0
16.10.2017 01:00:00 19,0 17,0 41 22 61 33 ZO 1017,0 - 0,0
16.10.2017 00:00:00 18,8 16,4 42 23 61 33 ZO 1017,1 - 0,0
15.10.2017 23:00:00 18,3 16,6 24 13 45 24 ZO 1017,9 - 0,0
15.10.2017 22:00:00 18,1 16,8 26 14 42 23 ZO 1018,3 - 0,0
15.10.2017 21:00:00 18,0 16,8 19 11 30 16 OZO 1018,9 - 0,0
15.10.2017 20:00:00 17,8 16,8 19 11 39 21 OZO 1019,0 - 0,0
15.10.2017 19:00:00 17,9 16,9 16 9 31 17 OZO 1019,0 - 0,0
15.10.2017 18:00:00 18,0 16,8 17 9 37 20 OZO 1018,3 - 0,0
15.10.2017 17:00:00 18,4 17,1 16 9 35 19 OZO 1018,6 4,0 0,0
15.10.2017 16:00:00 18,3 16,8 23 12 34 18 ZO 1018,8 - 0,0
15.10.2017 15:00:00 18,2 16,7 15 8 34 18 OZO 1019,1 - 0,0

tt = temperatuur
td = dauwpunt
ff = windsnelheid
fx = windstoten
dd = windrichting
ppp = luchtdruk
vv = zicht
rr = neerslag

Weerstations in de omgeving